Wetbulb
49.47 49.70 50.15 50.20 50.43 52.04 51.96 54.26 52.24 54.17 54.83 59.68 61.10 62.68 63.76 64.52 65.18 65.02 64.09 64.73 65.61 64.78 64.76 64.48 63.67 62.98 62.56 61.79 61.44 61.30 60.78 60.34 60.43 61.02 61.01 60.71 60.31 60.14 59.81 59.54 58.98 59.16 59.22 59.43
47.98 48.75 48.95 48.74 51.75 52.74 53.88 53.67 54.01 55.19 55.70 60.30 63.25 63.74 62.73 64.08 64.58 64.86 64.84 64.92 64.67 64.71 64.76 63.89 62.85 62.04 61.40 60.65 60.10 60.80 60.21 59.69 60.37 60.54 60.51 59.55 58.62 58.47 58.20 57.72 57.44 57.57 57.31 57.14
46.64 50.92 50.75 47.99 51.73 53.62 54.64 55.84 55.91 54.14 58.46 60.92 61.15 61.74 62.23 63.75 65.16 64.94 64.99 64.68 64.30 64.49 64.10 63.01 62.00 61.55 60.27 59.63 60.09 59.85 59.45 59.57 59.62 59.81 58.86 57.88 57.88 57.65 56.49 55.84 56.55 55.99 55.67 56.05
49.08 51.44 43.28 50.75 57.32 57.06 55.82 57.01 57.88 58.49 59.60 61.58 62.44 63.75 64.26 65.49 65.72 65.66 65.36 64.32 64.36 64.33 62.98 62.16 61.57 60.34 59.82 59.50 59.36 58.95 58.83 58.69 58.84 58.39 57.69 57.77 57.44 56.57 56.11 55.48 55.17 54.94 54.82 55.52
49.56 48.59 50.90 53.71 56.04 56.43 55.98 56.09 59.43 59.53 60.37 61.66 62.52 63.16 62.68 65.76 66.69 66.82 66.24 64.82 64.60 64.21 62.68 61.51 60.45 59.78 59.21 58.40 58.31 58.35 57.93 58.10 58.25 57.57 57.01 57.14 56.45 56.22 56.26 55.76 55.13 54.78 54.81 55.07
50.51 48.43 45.75 54.69 58.50 60.40 59.92 53.34 60.62 61.26 61.15 60.91 62.03 58.50 61.05 66.07 67.65 67.70 66.00 64.74 63.69 62.50 61.29 60.38 59.31 59.29 58.55 57.71 57.98 57.63 58.07 58.31 58.66 57.83 56.84 56.14 56.78 56.72 57.31 56.96 56.12 55.48 55.04 55.07
50.57 50.32 52.82 57.83 58.34 61.34 52.63 55.17 62.11 62.66 62.79 62.47 62.32 64.21 65.43 67.25 66.56 65.91 64.78 63.34 62.72 61.56 60.25 59.34 59.01 58.48 57.27 57.50 57.44 58.55 59.22 59.70 59.54 58.90 57.84 58.00 58.09 58.15 57.66 57.29 57.60 57.46 57.13 56.62
50.36 49.64 47.73 58.93 58.85 57.30 62.55 62.33 64.03 63.87 63.96 63.99 63.74 64.39 64.84 65.11 63.55 62.92 61.60 60.86 61.47 59.89 58.62 58.53 58.11 57.51 57.09 57.20 58.79 59.32 59.02 58.79 58.87 59.25 58.74 57.97 58.47 58.99 58.03 57.71 57.05 56.91 56.74 56.13
53.95 53.40 58.26 61.32 62.52 63.86 63.76 64.83 65.02 64.65 65.08 64.61 62.86 63.50 63.08 62.17 61.36 60.69 60.75 60.59 60.24 58.94 57.84 58.06 57.50 57.86 57.05 58.50 59.14 59.20 58.30 57.66 57.68 58.23 58.54 58.63 57.89 57.89 56.81 57.40 55.69 55.49 54.31 53.90
55.60 59.16 58.32 60.29 62.11 61.95 64.79 66.60 67.16 66.36 64.60 64.22 62.68 62.75 61.92 60.73 59.99 59.90 59.85 59.15 59.19 58.48 57.55 56.80 57.09 58.25 58.71 58.98 59.35 58.34 57.61 57.85 58.66 58.33 57.23 57.63 56.95 57.21 56.16 55.14 54.41 53.86 53.29 53.02
56.57 59.45 59.60 61.31 61.69 62.83 65.14 67.49 66.77 64.76 63.97 62.27 63.04 62.05 61.07 59.50 59.25 58.92 58.99 58.85 58.88 58.43 57.81 57.08 57.71 57.65 58.77 59.08 58.92 57.89 57.84 57.47 57.56 57.43 57.09 56.65 56.93 56.60 55.87 57.20 54.17 53.38 53.68 54.00
56.86 58.66 59.20 59.65 61.92 64.06 65.17 65.22 64.50 63.77 61.80 62.67 62.87 60.31 59.64 58.74 58.61 58.00 57.58 58.30 58.22 58.40 57.34 56.55 56.68 56.97 57.79 58.54 57.81 56.79 56.08 55.87 56.00 56.10 55.91 56.33 55.58 55.60 49.70 48.58 47.24 46.02 45.44 48.65
60.12 60.87 60.87 61.72 62.41 64.63 65.38 64.69 64.22 63.18 61.91 60.66 60.93 60.33 59.48 57.52 57.61 56.16 57.45 57.47 57.31 56.56 56.02 55.85 55.78 56.07 56.52 57.08 56.84 55.90 55.87 55.79 55.58 53.72 55.29 54.65 54.91 54.62 53.33 53.48 46.79 45.09 44.04 43.56
61.65 61.17 60.24 60.88 61.60 63.39 63.63 62.47 60.82 61.48 60.71 60.04 59.78 59.41 58.13 56.79 55.44 56.35 56.24 56.67 56.64 55.97 55.64 54.96 54.85 55.15 56.78 57.54 56.78 56.38 56.31 49.39 56.65 57.00 56.56 56.27 56.30 55.84 54.64 53.95 54.42 55.40 49.92 46.44
61.00 62.09 61.26 61.17 61.37 60.32 59.97 59.47 58.15 57.32 57.09 56.99 58.04 57.17 56.67 55.46 55.09 55.61 55.81 56.08 56.14 55.76 54.55 54.78 55.49 56.40 57.63 56.92 56.17 56.39 57.30 58.39 58.10 57.97 57.44 55.69 57.25 57.06 55.97 55.82 56.12 56.04 56.45 52.45
60.05 59.89 59.63 58.58 58.98 58.99 58.48 58.30 56.58 55.52 56.19 56.18 56.05 56.60 56.36 56.35 55.47 54.92 55.34 55.71 54.61 53.37 54.35 55.58 56.51 57.86 58.75 59.09 58.60 58.17 59.08 55.77 55.72 58.63 57.42 57.92 57.89 57.06 56.72 56.89 57.00 56.67 55.75 55.54
58.69 57.66 58.07 57.09 57.20 57.29 57.92 57.96 56.95 55.95 55.80 56.13 55.88 55.42 55.44 54.95 54.57 54.45 54.98 55.91 56.37 56.10 56.20 56.81 57.21 58.39 58.46 58.62 58.28 58.47 58.47 58.37 57.18 58.26 57.18 57.38 57.35 57.02 57.11 57.00 56.85 56.06 55.06 55.86
62.60 62.34 61.75 58.48 55.74 55.31 55.46 55.79 55.67 56.07 56.14 55.79 55.45 55.36 54.89 54.52 54.06 54.45 54.71 55.14 55.52 55.74 56.67 57.96 58.61 58.78 59.00 59.15 59.29 59.02 58.60 58.28 57.76 57.68 57.23 56.93 57.12 57.18 56.89 55.99 56.12 55.82 54.75 56.35
62.24 60.78 61.67 59.59 57.94 55.66 55.18 55.69 56.59 56.10 55.53 56.17 55.56 55.23 55.55 55.36 54.99 54.78 54.56 54.15 54.90 55.27 56.63 58.28 56.74 56.48 59.63 60.05 58.19 59.49 58.91 58.37 58.03 57.77 57.04 54.57 56.11 56.55 55.98 55.37 55.87 55.27 55.12 54.37
60.42 59.78 59.49 58.11 57.36 56.51 54.80 55.18 55.09 56.01 56.15 56.37 56.27 55.03 54.14 54.54 54.95 54.42 54.77 54.84 56.59 57.03 59.57 59.18 58.94 59.94 60.35 59.63 57.07 59.07 58.85 58.54 57.75 57.43 56.92 55.85 55.82 55.76 56.62 52.03 54.00 54.01 53.93 53.52
59.97 59.86 58.71 58.01 57.59 57.67 56.78 56.79 56.58 55.35 55.91 56.17 55.67 55.02 54.71 54.95 55.44 55.29 54.65 54.13 57.38 57.93 58.73 57.14 59.53 59.82 59.84 59.06 58.75 58.65 57.87 57.72 57.40 56.76 56.17 55.59 55.93 57.11 55.85 54.28 53.47 52.70 52.25 52.94
60.04 59.89 59.57 58.91 58.30 56.89 57.15 57.53 56.95 55.90 55.55 56.10 56.68 56.04 55.10 54.41 55.20 55.41 57.30 57.07 58.66 51.78 57.59 59.27 59.96 58.83 59.61 57.20 58.93 58.29 58.11 57.74 57.38 56.65 56.93 57.06 56.58 54.82 53.90 52.91 51.84 51.52 52.00 51.55
60.64 60.20 59.94 58.67 58.45 57.27 56.99 57.47 57.11 56.66 56.05 56.32 56.04 56.04 55.43 54.92 55.44 54.41 54.51 58.51 58.30 55.83 58.03 59.33 57.24 54.49 54.56 57.67 59.53 59.12 58.45 57.94 57.28 57.64 56.55 55.99 55.09 53.23 51.84 51.74 51.45 51.39 50.48 48.93
60.27 60.60 59.20 58.40 58.56 56.89 55.73 56.58 57.31 57.45 57.66 57.57 57.15 57.38 56.35 55.03 55.71 57.87 58.69 53.19 52.11 53.67 57.81 59.16 57.08 53.96 52.58 59.53 59.11 59.19 59.02 58.38 57.50 56.34 55.26 48.03 53.38 52.33 51.58 51.67 51.24 50.72 49.10 47.28
59.50 58.28 55.25 55.27 55.63 56.68 56.97 56.82 56.67 56.59 56.54 56.61 56.50 56.98 58.04 58.40 57.28 58.07 58.44 58.78 52.46 54.57 59.89 55.56 53.51 52.76 58.40 59.45 59.13 60.04 59.18 57.48 56.57 55.73 54.47 52.81 51.71 50.48 50.67 51.51 50.53 48.41 48.20 47.71
58.60 57.73 57.61 57.63 57.99 57.16 56.36 56.48 55.79 56.28 56.44 55.81 56.45 57.12 57.66 58.35 58.71 58.86 59.28 56.16 59.10 55.45 59.10 59.49 59.11 59.44 60.02 60.66 60.13 58.47 56.67 55.46 55.20 54.04 52.03 51.83 51.16 49.87 50.46 50.18 49.49 48.67 47.80 46.93
57.32 53.80 56.65 56.40 56.86 56.80 57.20 56.80 56.08 55.66 56.37 56.65 56.20 57.55 58.22 58.53 58.60 57.94 54.63 59.71 59.64 59.85 60.54 60.69 58.66 57.54 60.22 59.56 57.63 56.41 56.02 55.42 51.10 53.14 52.39 51.04 50.24 49.88 50.07 49.76 49.15 48.39 47.57 46.81
MSLP
1000.90 1000.56 1000.74 1000.67 1000.80 1001.19 1001.03 1000.64 1000.46 1000.20 1001.43 1001.47 1003.58 1004.76 1006.30 1007.57 1008.90 1009.89 1010.82 1011.49 1012.18 1012.74 1013.48 1014.09 1014.43 1014.69 1014.83 1015.10 1015.31 1015.58 1015.97 1016.41 1016.99 1017.38 1017.43 1017.46 1017.37 1017.30 1017.20 1017.14 1016.81 1017.07 1016.88 1016.73
1000.72 1000.66 1000.64 1000.24 1000.15 1000.33 1000.39 1000.71 1000.81 1000.81 1001.23 1001.98 1003.61 1005.20 1006.46 1007.47 1008.41 1009.27 1010.22 1011.21 1012.16 1012.71 1013.41 1013.90 1014.33 1014.63 1015.22 1015.80 1016.36 1016.72 1017.18 1017.44 1017.56 1017.57 1017.35 1017.54 1017.44 1017.69 1017.75 1017.83 1017.71 1017.73 1017.41 1017.11
1000.68 1000.57 1000.54 1000.07 999.48 999.60 999.68 999.97 999.87 1000.46 1000.28 1002.08 1003.60 1004.62 1005.83 1006.89 1007.85 1008.77 1009.71 1010.74 1011.74 1012.62 1013.33 1014.05 1014.59 1015.16 1015.77 1016.41 1016.85 1017.11 1017.38 1017.52 1017.48 1017.57 1017.62 1017.88 1017.98 1018.15 1018.30 1018.36 1018.21 1017.98 1017.65 1017.15
1001.00 1000.87 999.98 998.74 999.08 998.85 999.11 999.29 999.71 1000.57 1000.88 1002.02 1003.25 1004.52 1005.75 1006.74 1007.50 1008.54 1009.54 1010.59 1011.49 1012.45 1013.51 1014.29 1014.86 1015.48 1016.08 1016.60 1016.90 1017.27 1017.54 1017.45 1017.53 1017.78 1017.83 1018.20 1018.36 1018.53 1018.73 1018.61 1018.24 1017.84 1017.58 1017.46
1000.94 1000.10 999.54 999.00 998.83 998.58 998.54 998.48 999.37 1000.19 1001.41 1002.62 1003.84 1004.90 1006.01 1006.69 1007.46 1008.16 1009.29 1010.44 1011.51 1012.58 1013.66 1014.39 1014.99 1015.77 1016.31 1016.63 1017.02 1017.34 1017.46 1017.50 1017.83 1018.04 1018.23 1018.40 1018.51 1018.61 1018.75 1018.41 1018.16 1018.08 1018.03 1017.80
1001.03 999.67 998.63 997.73 997.66 998.26 998.44 998.32 999.03 1000.06 1001.06 1002.14 1003.19 1003.64 1004.50 1006.32 1007.34 1008.27 1009.53 1010.54 1011.64 1012.81 1014.04 1014.75 1015.47 1016.06 1016.44 1016.94 1017.40 1017.55 1017.70 1018.02 1018.31 1018.44 1018.55 1018.48 1018.44 1018.48 1018.62 1018.50 1018.36 1018.04 1017.93 1017.94
1000.19 999.45 998.42 997.73 997.88 998.19 998.28 997.76 998.20 999.29 1000.62 1001.82 1002.24 1002.68 1003.77 1006.24 1007.72 1008.84 1009.81 1010.92 1012.19 1013.15 1013.93 1015.02 1015.83 1016.28 1016.82 1017.42 1017.57 1017.81 1018.05 1018.21 1018.49 1018.62 1018.61 1018.55 1018.57 1018.60 1018.60 1018.48 1018.24 1017.99 1017.87 1017.67
1000.44 999.63 998.52 998.08 998.38 997.56 996.58 997.21 997.74 999.16 1000.34 1001.64 1002.67 1003.61 1004.96 1006.62 1007.98 1009.13 1010.18 1011.58 1012.46 1013.28 1014.36 1015.43 1016.22 1016.68 1017.00 1017.33 1017.67 1018.04 1018.12 1018.47 1018.73 1018.62 1018.41 1018.49 1018.63 1018.54 1018.44 1018.22 1017.93 1017.69 1017.37 1016.96
1000.11 999.04 998.49 997.56 997.26 996.59 996.63 997.05 997.98 998.93 1000.22 1001.36 1002.52 1004.19 1005.69 1007.13 1008.44 1009.69 1010.70 1011.73 1012.84 1013.76 1014.80 1015.75 1016.29 1016.54 1016.78 1017.29 1017.77 1018.03 1018.17 1018.39 1018.48 1018.54 1018.59 1018.58 1018.42 1018.19 1017.85 1017.75 1017.51 1017.26 1017.06 1016.79
1000.38 998.38 998.50 998.05 997.74 997.81 997.36 997.33 998.38 999.11 1000.20 1001.61 1002.56 1004.66 1006.30 1007.72 1008.76 1009.89 1011.21 1012.25 1013.14 1014.10 1014.93 1015.66 1016.26 1016.71 1017.00 1017.61 1017.93 1018.09 1018.13 1018.22 1018.34 1018.37 1018.39 1018.33 1018.10 1017.85 1017.65 1017.59 1017.47 1017.25 1016.95 1016.64
1000.03 998.93 998.73 997.92 998.03 997.86 997.94 997.79 999.07 1000.80 1001.33 1001.93 1003.02 1005.08 1006.35 1007.91 1009.22 1010.50 1011.61 1012.64 1013.39 1014.05 1014.71 1015.53 1016.17 1016.70 1017.09 1017.64 1017.98 1018.11 1018.13 1018.14 1018.13 1018.03 1017.99 1017.82 1017.69 1017.59 1017.53 1017.61 1017.62 1017.47 1017.07 1016.97
999.22 999.29 999.11 998.70 998.54 998.38 998.53 998.84 999.14 998.88 1002.52 1003.36 1003.73 1004.90 1006.79 1008.24 1009.55 1010.72 1011.72 1012.61 1013.53 1014.25 1014.94 1015.67 1016.30 1016.77 1017.21 1017.59 1017.83 1017.68 1017.78 1018.01 1017.92 1017.74 1017.59 1017.42 1017.18 1016.97 1017.20 1017.24 1017.31 1017.33 1017.31 1017.41
999.47 999.85 999.77 999.30 998.89 999.03 999.17 999.74 1000.36 1001.24 1001.31 1003.38 1005.37 1005.95 1006.87 1008.47 1010.19 1011.24 1012.08 1012.70 1013.73 1014.48 1015.29 1016.04 1016.51 1016.91 1017.44 1017.75 1017.94 1017.81 1017.89 1018.11 1017.84 1017.57 1017.28 1017.08 1016.85 1016.76 1016.64 1016.55 1016.55 1016.54 1016.68 1016.76
1000.03 1000.12 999.78 999.44 999.49 999.90 1000.18 1000.60 1001.21 1002.21 1003.82 1004.29 1005.63 1007.08 1007.98 1009.33 1010.96 1011.66 1012.31 1013.13 1014.20 1014.90 1015.75 1016.04 1016.47 1016.90 1017.39 1017.59 1017.74 1017.82 1017.69 1018.16 1017.67 1017.18 1016.83 1016.56 1016.40 1016.36 1016.39 1016.28 1016.01 1015.75 1015.78 1015.99
999.76 999.97 1000.13 1000.26 1000.52 1000.94 1001.29 1001.66 1002.14 1003.37 1004.40 1005.69 1006.85 1007.37 1008.57 1009.81 1011.05 1011.85 1012.84 1013.75 1014.57 1015.09 1015.79 1016.04 1016.30 1016.78 1017.19 1017.53 1017.75 1017.69 1017.25 1017.03 1016.97 1016.67 1016.37 1016.34 1016.06 1015.90 1015.78 1015.69 1015.50 1015.26 1014.98 1014.99
1000.07 1000.55 1000.70 1000.91 1001.18 1001.50 1002.01 1002.39 1003.11 1004.22 1005.53 1006.54 1007.37 1008.47 1009.46 1010.50 1011.35 1012.16 1013.07 1014.07 1014.64 1015.27 1015.63 1015.93 1016.26 1016.62 1016.99 1017.33 1017.26 1017.07 1016.85 1017.05 1017.00 1016.27 1016.04 1015.80 1015.51 1015.37 1015.22 1015.12 1014.93 1014.64 1014.40 1014.30
1000.42 1000.77 1000.85 1001.16 1001.36 1002.18 1003.09 1003.75 1004.11 1004.89 1006.05 1006.97 1008.05 1009.09 1010.12 1011.03 1011.80 1012.61 1013.60 1014.34 1014.76 1015.28 1015.56 1015.86 1016.13 1016.48 1016.86 1016.97 1016.78 1016.38 1016.30 1016.28 1016.47 1016.07 1015.73 1015.46 1015.30 1015.13 1014.90 1014.74 1014.46 1014.27 1014.21 1013.91
1000.73 1000.80 1000.95 999.66 1000.80 1002.25 1004.02 1005.45 1005.20 1005.65 1006.00 1007.17 1008.34 1009.36 1010.29 1010.95 1011.73 1012.91 1013.79 1014.39 1014.92 1015.31 1015.47 1015.69 1015.90 1016.18 1016.49 1016.41 1016.31 1016.14 1016.08 1015.84 1015.65 1015.42 1015.25 1015.05 1014.83 1014.68 1014.55 1014.47 1014.27 1014.07 1013.96 1013.34
1000.28 1000.57 1000.54 1000.02 1000.48 1001.71 1004.87 1006.15 1005.57 1006.62 1007.00 1007.77 1008.63 1009.69 1010.56 1011.49 1012.35 1013.25 1013.98 1014.50 1014.87 1015.07 1015.29 1015.68 1016.02 1016.24 1015.98 1016.00 1016.04 1015.84 1015.67 1015.31 1015.06 1014.86 1014.76 1014.72 1014.47 1014.29 1014.27 1014.25 1014.03 1013.93 1013.59 1013.27
1000.09 1001.07 1000.77 1001.30 1002.52 1003.25 1005.27 1005.92 1006.40 1006.72 1007.77 1008.29 1009.04 1010.14 1011.17 1011.93 1012.67 1013.33 1013.91 1014.24 1014.34 1014.44 1015.03 1015.27 1015.56 1015.58 1015.50 1015.57 1015.71 1015.30 1015.04 1014.70 1014.49 1014.33 1014.30 1014.34 1014.21 1014.20 1014.16 1014.12 1014.05 1013.83 1013.74 1013.47
999.71 1000.76 1001.32 1001.33 1003.05 1004.58 1004.38 1005.56 1006.37 1007.33 1008.27 1008.92 1009.46 1010.47 1011.22 1012.13 1012.83 1013.21 1013.75 1013.81 1014.19 1014.61 1014.85 1015.23 1015.13 1014.99 1015.10 1015.14 1015.10 1014.63 1014.33 1014.13 1014.10 1014.08 1014.13 1014.12 1014.16 1014.00 1014.04 1014.09 1014.08 1013.96 1013.84 1013.69
999.72 1000.70 1001.55 1002.09 1002.30 1003.69 1005.25 1006.11 1007.11 1008.05 1008.81 1009.30 1009.98 1010.79 1011.54 1012.27 1012.76 1013.12 1013.46 1013.55 1013.73 1014.41 1014.40 1014.52 1014.51 1014.70 1014.70 1014.88 1014.47 1014.27 1014.00 1013.93 1013.95 1014.00 1014.02 1014.07 1014.08 1014.15 1014.25 1014.25 1014.20 1014.11 1014.15 1014.19
1000.15 1001.21 1002.03 1002.57 1003.23 1004.41 1005.73 1006.65 1007.35 1007.98 1008.80 1009.61 1010.31 1011.02 1011.48 1011.92 1012.20 1012.58 1012.96 1013.49 1013.71 1014.02 1014.09 1014.11 1014.24 1014.49 1014.62 1014.59 1014.15 1013.94 1013.81 1013.74 1013.82 1013.82 1013.90 1014.12 1014.25 1014.35 1014.40 1014.45 1014.42 1014.49 1014.48 1014.49
1000.91 1002.07 1002.71 1003.70 1004.77 1005.47 1006.07 1007.12 1007.64 1008.44 1009.00 1009.79 1010.49 1011.14 1011.56 1011.96 1012.59 1012.84 1013.05 1013.59 1013.71 1013.86 1013.86 1013.76 1013.97 1014.26 1014.42 1013.94 1013.72 1013.56 1013.55 1013.56 1013.64 1013.74 1014.07 1014.50 1014.51 1014.59 1014.62 1014.59 1014.71 1014.76 1014.72 1014.72
1001.33 1001.94 1002.71 1004.75 1005.19 1005.87 1006.60 1007.43 1008.17 1008.84 1009.46 1010.21 1010.91 1011.28 1011.46 1011.73 1011.84 1012.46 1012.94 1013.03 1013.48 1013.68 1013.31 1013.41 1013.64 1013.75 1013.55 1013.34 1013.27 1013.13 1013.30 1013.46 1013.70 1013.98 1014.15 1014.30 1014.40 1014.49 1014.62 1014.81 1014.96 1014.99 1014.91 1014.95
1002.17 1002.79 1002.57 1004.27 1004.74 1005.75 1006.80 1007.49 1008.01 1008.79 1009.41 1010.03 1010.64 1011.22 1011.53 1011.94 1012.21 1012.50 1012.72 1012.92 1012.83 1012.96 1012.68 1012.78 1012.91 1012.91 1012.95 1012.95 1012.99 1013.18 1013.40 1013.77 1013.92 1014.18 1014.32 1014.46 1014.61 1014.65 1014.67 1014.84 1014.98 1015.02 1015.06 1015.09
1002.75 1002.86 1003.79 1004.88 1005.49 1006.19 1006.77 1007.45 1008.04 1008.75 1009.28 1009.83 1010.39 1011.14 1011.40 1011.73 1012.08 1012.21 1012.37 1012.12 1012.14 1012.16 1012.24 1012.37 1012.58 1012.69 1012.63 1012.74 1012.96 1013.24 1013.45 1013.73 1014.01 1014.21 1014.41 1014.55 1014.62 1014.69 1014.75 1014.91 1014.97 1015.03 1015.07 1015.08
Wind_Speed
14 13 11 12 9 9 12 10 9 7 12 10 17 19 16 15 13 13 13 12 12 13 11 11 11 10 10 10 10 11 10 9 8 5 6 7 8 9 9 10 10 9 8 8
7 9 10 11 9 10 13 9 11 6 11 4 16 16 16 16 16 16 16 15 14 13 12 11 11 11 10 9 8 7 6 6 6 6 8 9 9 9 10 9 9 8 9 10
6 6 8 8 14 12 8 9 8 11 6 13 19 19 20 19 17 17 17 17 16 14 12 11 11 10 9 8 7 7 7 6 6 7 8 9 9 8 8 8 8 9 9 10
3 9 8 2 1 10 11 5 12 7 6 13 14 15 15 15 17 17 16 16 15 13 12 11 11 10 9 8 8 7 6 7 7 7 7 7 7 7 7 6 8 9 11 11
4 8 2 3 6 10 12 12 15 8 12 14 16 16 13 14 14 16 16 15 14 13 13 12 11 9 8 8 7 6 7 8 6 5 5 5 6 6 6 6 8 8 7 9
4 5 8 6 9 7 3 9 14 14 18 23 20 11 10 17 15 16 16 15 15 15 13 12 10 9 9 8 6 5 5 5 4 4 5 5 5 5 5 4 5 4 6 6
6 5 3 4 7 9 7 6 20 19 21 22 13 3 15 19 16 16 16 17 17 15 13 11 9 8 8 7 6 5 4 4 3 3 4 4 4 3 3 4 4 5 5 4
3 5 7 9 9 10 7 1 17 17 21 18 12 18 22 20 20 19 19 19 17 14 12 11 9 9 9 8 6 4 5 5 4 3 2 3 2 2 3 4 4 5 6 6
7 5 3 15 4 5 6 7 16 19 20 17 21 21 21 20 20 19 20 17 15 14 14 11 10 9 10 8 6 5 5 5 3 2 1 2 4 4 4 3 5 5 5 5
3 6 12 10 13 10 7 10 15 16 22 19 23 22 20 19 19 18 17 17 15 15 14 12 9 8 8 7 6 5 5 3 0 2 2 3 3 3 4 5 5 5 6 6
6 12 8 13 12 7 5 14 16 14 17 21 24 21 22 20 19 17 16 15 14 13 12 12 10 9 8 6 5 4 2 1 2 1 2 1 1 2 3 2 3 5 5 5
4 3 5 3 5 8 11 13 21 28 18 16 21 25 21 18 17 17 17 15 13 12 12 11 10 9 7 6 5 4 3 3 1 1 1 1 2 3 9 9 7 9 11 8
4 1 8 9 3 7 10 14 16 15 21 24 16 19 22 20 16 17 16 15 13 13 12 10 9 8 6 5 4 4 4 3 3 3 3 3 3 3 5 4 11 10 7 8
10 6 5 2 2 7 12 14 17 19 16 17 20 17 19 18 17 15 14 13 12 12 11 9 9 7 6 5 4 4 5 4 4 3 3 4 3 3 4 5 6 6 4 7
6 9 4 9 12 14 16 17 20 18 18 18 16 18 19 20 17 15 13 12 12 12 10 9 8 7 6 5 5 5 3 2 3 4 4 4 3 3 3 5 6 6 7 5
5 9 12 12 13 15 14 17 18 18 17 18 18 17 17 16 16 15 13 12 12 10 10 8 7 7 6 6 5 4 3 4 5 5 4 4 3 3 5 6 7 7 7 7
13 15 16 16 15 12 10 12 17 19 19 17 18 17 17 16 15 14 12 10 9 9 9 9 8 6 6 6 5 3 4 5 4 6 5 4 5 6 7 8 9 9 8 8
12 9 9 19 20 12 10 7 14 17 18 19 18 17 17 16 15 13 12 10 8 8 8 8 7 6 6 6 5 5 5 6 5 5 5 5 6 7 7 8 8 9 7 8
9 5 9 14 15 19 12 12 15 15 17 17 18 16 15 14 14 12 11 9 9 9 7 7 8 7 6 5 4 4 6 6 6 6 6 5 7 7 7 7 6 6 8 9
16 13 18 20 17 21 16 10 15 16 14 15 15 14 13 13 13 12 11 10 8 5 6 5 6 6 5 4 5 5 6 7 8 7 6 7 7 6 5 2 5 7 9 9
19 17 16 20 17 14 16 14 15 15 14 14 15 14 13 13 12 12 10 7 7 6 5 5 5 4 4 4 5 6 6 7 7 6 5 4 3 3 4 5 6 8 8 8
17 16 15 17 17 17 13 14 14 14 13 13 12 13 13 12 11 9 7 5 4 5 4 4 4 5 5 4 6 6 7 6 5 3 1 1 1 3 4 6 7 7 6 6
13 13 14 15 16 17 16 13 13 15 14 13 13 12 11 9 9 8 6 7 4 5 4 4 4 6 6 6 6 6 6 4 2 1 3 3 3 3 4 5 5 5 5 6
18 15 16 14 13 15 15 12 13 12 12 11 12 11 10 7 5 4 3 4 4 4 5 4 5 5 7 5 4 4 2 1 3 4 4 2 3 3 4 4 4 4 5 5
13 17 19 13 12 10 14 13 12 11 11 10 10 9 9 6 5 7 5 5 5 5 6 6 6 6 5 4 3 1 2 3 3 3 3 3 4 4 4 3 4 4 4 5
13 10 13 13 12 11 11 11 10 9 9 9 8 7 6 5 4 4 4 5 5 5 4 3 4 4 3 1 2 3 4 5 4 4 3 3 4 4 4 3 3 3 4 4
11 11 12 10 9 10 11 11 11 10 9 9 9 7 7 5 4 4 3 3 3 2 3 4 3 1 3 4 4 4 4 4 3 4 3 3 3 3 3 2 2 3 3 4
Wind_Direction
231 231 214 236 231 195 210 235 223 228 217 239 181 166 163 153 149 142 143 143 143 142 139 138 128 114 99 81 64 56 57 60 66 71 65 55 47 37 31 26 30 22 20 19
239 219 219 239 243 213 226 228 252 255 251 144 157 146 154 160 160 154 153 153 152 145 146 138 126 114 104 98 93 94 100 99 100 82 63 51 48 53 50 50 51 47 42 35
229 191 175 238 234 214 212 219 202 212 226 148 163 164 165 165 166 163 161 156 156 154 146 141 131 117 108 105 116 106 94 87 76 75 75 71 68 58 50 46 50 48 42 36
134 155 221 217 256 222 213 258 199 247 149 170 169 156 162 168 166 167 164 161 155 150 142 138 128 120 124 123 110 109 107 95 83 77 73 74 66 62 59 52 49 43 39 35
197 208 348 199 192 184 189 233 193 179 141 148 138 135 159 179 182 173 164 157 151 144 145 141 132 124 118 112 111 109 86 71 67 73 88 91 81 70 52 45 44 40 36 32
171 200 204 209 185 165 150 250 182 177 160 158 158 163 175 177 171 160 154 147 146 144 143 131 128 137 128 123 125 130 128 122 117 105 94 90 68 53 35 25 31 19 33 32
192 249 254 229 149 149 188 226 175 177 165 164 173 69 136 152 153 152 147 144 143 144 139 134 141 128 139 156 163 133 136 129 124 115 92 58 42 34 357 344 345 353 348 1
160 205 248 159 137 192 207 299 174 168 163 163 117 123 137 143 144 145 141 141 147 140 138 138 144 158 152 158 137 136 121 133 139 123 63 42 360 343 323 325 322 330 336 334
221 214 344 199 313 222 164 164 171 164 162 149 133 140 144 144 145 145 146 146 145 143 144 153 158 163 155 139 152 157 156 148 128 69 339 309 306 313 312 324 334 346 342 341
265 217 236 247 253 276 224 158 172 164 153 150 136 144 142 145 145 145 146 148 148 149 152 150 152 154 138 149 156 161 155 154 234 273 317 297 280 299 323 338 347 355 356 359
264 276 264 252 246 238 213 150 140 138 154 143 141 148 148 145 144 143 145 147 151 156 150 144 145 151 151 149 156 156 139 196 237 271 305 330 330 304 312 313 319 330 333 333
253 358 308 293 324 196 171 164 151 136 151 148 149 144 143 140 143 147 148 147 150 146 143 142 150 151 152 156 168 162 183 201 215 275 317 323 324 324 214 250 248 233 251 254
279 296 266 288 303 208 170 155 149 138 143 141 139 140 137 139 147 144 145 139 144 144 139 146 149 151 151 163 178 177 202 222 231 253 278 289 302 318 324 317 232 249 253 215
251 252 239 152 189 148 138 125 117 116 123 121 135 135 131 134 139 139 136 136 138 137 145 144 146 153 170 169 172 194 207 229 255 281 288 294 301 296 290 306 317 324 229 234
266 210 313 123 122 120 123 126 119 121 124 129 137 134 138 139 140 133 130 131 139 141 145 143 147 155 160 171 199 205 199 249 281 295 298 304 285 276 277 285 294 304 305 276
145 137 126 121 124 127 129 126 122 126 132 135 134 136 135 135 132 128 128 141 147 158 153 153 160 156 163 190 212 227 244 248 275 289 298 278 280 299 303 304 304 298 297 301
163 161 139 123 112 113 123 136 136 137 137 135 133 130 130 129 127 129 140 154 152 156 158 166 168 163 187 208 228 251 268 275 273 271 283 307 296 291 299 300 306 315 305 304
202 277 243 142 129 116 112 149 136 135 135 133 131 135 139 142 141 145 149 145 147 157 171 171 168 175 207 224 237 257 261 269 271 268 278 283 293 299 300 308 310 314 305 320
208 224 166 108 112 113 138 164 129 132 130 136 138 141 139 139 143 147 146 150 161 166 173 189 195 218 226 225 238 243 254 266 271 274 280 290 289 304 313 310 323 323 333 334
142 152 129 122 129 137 146 129 131 132 138 136 127 133 143 144 144 144 154 167 171 151 145 169 196 221 229 230 238 255 263 269 279 289 297 307 307 314 314 321 334 344 341 341
142 144 140 129 137 151 120 129 130 132 139 141 143 148 147 148 153 150 157 173 183 193 210 198 227 230 227 240 235 262 269 284 293 300 305 312 331 333 1 358 349 348 346 350
147 145 144 140 123 107 125 130 134 140 144 141 140 142 147 151 154 161 172 183 147 165 189 216 220 220 249 234 263 273 286 295 286 294 302 63 42 20 1 356 352 356 4 6
131 130 130 122 124 127 133 139 146 147 148 150 147 151 157 159 162 166 179 193 208 191 229 234 226 236 246 255 266 281 288 286 294 154 109 91 47 23 7 3 355 2 3 359
132 127 108 105 122 130 130 149 150 154 150 148 152 155 147 146 156 192 142 138 206 197 225 251 257 244 252 272 285 287 283 183 146 121 106 101 66 27 11 2 1 358 3 2
127 125 118 125 132 144 140 145 142 141 141 148 153 156 157 161 173 179 207 219 212 225 231 218 244 258 272 287 284 290 133 134 120 120 104 61 32 28 6 16 18 4 5 359
136 145 125 146 143 144 145 150 140 146 149 145 144 152 157 160 155 170 189 200 189 196 236 260 268 297 302 258 136 134 137 132 143 111 87 59 38 15 13 13 17 5 5 358
120 109 117 124 130 140 147 145 144 147 149 150 144 157 158 160 172 188 178 173 194 233 275 292 304 236 148 130 129 130 133 122 102 114 80 55 32 18 12 20 18 6 355 2